Dallas Addison, TX

12:46 AM CDT on May 30, 2017 (GMT -0500)
Addison

Weather History for KADS - August, 2014

Change the Weather History Date:

Thursday, August 14, 2014

  Actual Average Record
Temperature  
Mean Temperature 82 °F -  
Max Temperature 94 °F 93 °F 104 °F (2012)
Min Temperature 73 °F 75 °F 69 °F (2002)
Cooling Degree Days 17    
Growing Degree Days 32 (Base 50)    
Moisture  
Dew Point 59 °F    
Average Humidity 48    
Maximum Humidity 63    
Minimum Humidity 31    
Precipitation  
Precipitation 0.00 in - - ()
Sea Level Pressure  
Sea Level Pressure 30.04 in    
Wind  
Wind Speed 6 mph (SE)    
Max Wind Speed 12 mph    
Max Gust Speed 16 mph    
Visibility 11 miles    
Events      
Averages and records for this station are not official NWS values.
T = Trace of Precipitation, MM = Missing Value Source: NWS Daily Summary

Daily Weather History Graph

Daily Weather History Graph

Search for Another Location

Airport or City:

Trip Planner

Search our weather history database for the weather conditions in past years. The results will help you decide how hot, cold, wet, or windy it might be!

Date:

Astronomy

Aug. 14, 2014 Rise Set
Actual Time 6:49 AM CDT 8:13 PM CDT
Civil Twilight 6:23 AM CDT 8:39 PM CDT
Nautical Twilight 5:52 AM CDT 9:10 PM CDT
Astronomical Twilight 5:19 AM CDT 9:43 PM CDT
Moon 10:56 PM CDT (8/14) 11:10 AM CDT (8/14)
Length of Visible Light 14h 16m
Length of Day
13h 23m
Waning Gibbous, 79% of the Moon is Illuminated
Aug 14
Waning Gibbous
Aug 17
Last Quarter
Aug 25
New
Sep 2
First Quarter
Sep 8
Full

Hourly Weather History & Observations

Time (CDT) Temp. Heat Index Dew Point Humidity Pressure Visibility Wind Dir Wind Speed Gust Speed Precip Events Conditions
12:15 AM 80.4 °F 80.9 °F 58.6 °F 47% 30.07 in 10.0 mi East 4.6 mph - N/A   Clear
12:35 AM 79.7 °F - 59.0 °F 49% 30.07 in 10.0 mi ESE 3.5 mph - N/A   Clear
12:55 AM 79.9 °F - 59.2 °F 49% 30.07 in 10.0 mi East 4.6 mph - N/A   Clear
1:15 AM 79.7 °F - 59.4 °F 50% 30.06 in 10.0 mi ESE 4.6 mph - N/A   Clear
1:35 AM 79.0 °F - 59.5 °F 51% 30.06 in 10.0 mi ESE 4.6 mph - N/A   Clear
1:55 AM 78.4 °F - 59.9 °F 53% 30.06 in 10.0 mi ESE 5.8 mph - N/A   Clear
2:15 AM 78.1 °F - 60.1 °F 54% 30.06 in 10.0 mi ESE 5.8 mph - N/A   Clear
2:35 AM 77.7 °F - 60.4 °F 55% 30.05 in 10.0 mi ESE 4.6 mph - N/A   Clear
2:55 AM 77.5 °F - 60.1 °F 55% 30.05 in 10.0 mi SE 4.6 mph - N/A   Clear
3:15 AM 76.8 °F - 59.9 °F 56% 30.05 in 10.0 mi SE 4.6 mph - N/A   Clear
3:35 AM 77.0 °F - 59.4 °F 54% 30.05 in 10.0 mi SE 5.8 mph - N/A   Clear
3:55 AM 76.6 °F - 59.0 °F 54% 30.05 in 10.0 mi SE 5.8 mph - N/A   Clear
4:15 AM 75.9 °F - 59.2 °F 56% 30.06 in 10.0 mi SE 4.6 mph - N/A   Clear
4:35 AM 75.6 °F - 59.5 °F 57% 30.06 in 10.0 mi SE 4.6 mph - N/A   Clear
4:55 AM 73.9 °F - 59.9 °F 61% 30.06 in 10.0 mi SSE 4.6 mph - N/A   Clear
5:15 AM 73.4 °F - 60.1 °F 63% 30.06 in 10.0 mi SSE 4.6 mph - N/A   Clear
5:35 AM 74.3 °F - 60.1 °F 61% 30.06 in 10.0 mi SSE 5.8 mph - N/A   Clear
5:47 AM 73.4 °F - 59.0 °F 61% 30.04 in 13.0 mi SSE 6.9 mph - N/A   Clear
6:47 AM 73.4 °F - 59.0 °F 61% 30.05 in 13.0 mi SSE 5.8 mph - N/A   Clear
7:47 AM 75.2 °F - 60.8 °F 61% 30.07 in 13.0 mi SSE 5.8 mph - N/A   Clear
8:59 AM 78.8 °F - 60.8 °F 54% 30.09 in 13.0 mi South 8.1 mph - N/A   Clear
9:47 AM 80.6 °F 81.1 °F 59.0 °F 48% 30.10 in 13.0 mi South 6.9 mph - N/A   Clear
10:47 AM 84.2 °F 83.8 °F 59.0 °F 42% 30.10 in 13.0 mi South 5.8 mph - N/A   Clear
11:55 AM 86.0 °F 84.9 °F 57.2 °F 37% 30.08 in 25.0 mi South 5.8 mph - N/A   Clear
12:47 PM 87.8 °F 86.5 °F 57.2 °F 35% 30.06 in 25.0 mi ESE 8.1 mph - N/A   Clear
1:47 PM 87.8 °F 86.5 °F 57.2 °F 35% 30.04 in 15.0 mi Calm Calm - N/A   Clear
2:47 PM 91.4 °F 90.7 °F 59.0 °F 34% 30.02 in 13.0 mi SE 3.5 mph - N/A   Clear
3:51 PM 91.4 °F 89.9 °F 57.2 °F 31% 30.00 in 13.0 mi East 9.2 mph - N/A   Clear
4:55 PM 91.4 °F 89.9 °F 57.2 °F 31% 29.99 in 30.0 mi ESE 6.9 mph - N/A   Clear
6:47 PM 91.4 °F 89.9 °F 57.2 °F 31% 29.97 in 15.0 mi East 11.5 mph - N/A   Scattered Clouds
7:47 PM 87.8 °F 86.5 °F 57.2 °F 35% 29.97 in 13.0 mi East 10.4 mph - N/A   Scattered Clouds
8:47 PM 86.0 °F 85.4 °F 59.0 °F 40% 29.97 in 13.0 mi East 11.5 mph - N/A   Scattered Clouds
9:47 PM 86.0 °F 85.4 °F 59.0 °F 40% 30.00 in 13.0 mi ESE 10.4 mph 16.1 mph N/A   Clear
10:15 PM 84.7 °F 84.4 °F 59.4 °F 42% 30.01 in 10.0 mi SE 8.1 mph - N/A   Clear
10:35 PM 84.2 °F 84.0 °F 59.5 °F 43% 30.02 in 10.0 mi SE 8.1 mph - N/A   Clear
10:55 PM 83.7 °F 83.6 °F 59.7 °F 44% 30.02 in 10.0 mi SE 10.4 mph - N/A   Clear
11:15 PM 83.3 °F 83.4 °F 59.9 °F 45% 30.02 in 10.0 mi SE 8.1 mph - N/A   Clear
11:35 PM 83.1 °F 83.2 °F 59.9 °F 45% 30.02 in 10.0 mi SE 8.1 mph - N/A   Clear
11:55 PM 82.6 °F 82.8 °F 59.9 °F 46% 30.02 in 10.0 mi SE 8.1 mph - N/A   Clear